Regional Weather Roundup
Issued by NWS

Home | Current Version | Previous Version | Graphics & Text | Print | Product List | Glossary On
Versions: 1 2 3 4 5 6 7 8 9 10 11 12 13 14 15 16 17 18 19 20 21 22 23 24 25 26 27 28 29 30 31 32 33 34 35 36 37 38 39 40 41 42 43 44 45 46 47 48 49 50
000
ASUS43 KDMX 092003
RWRIA

WEATHER ROUNDUP FOR IOWA
NATIONAL WEATHER SERVICE DES MOINES IA
200 PM CST TUE FEB 09 2016

NOTE: "FAIR" INDICATES FEW OR NO CLOUDS BELOW 12,000 FEET WITH NO
SIGNIFICANT WEATHER AND/OR OBSTRUCTIONS TO VISIBILITY.

* - THESE STATIONS ARE NOT NWS STATIONS...THUS NOT UNDER NWS
QUALITY CONTROL.  THEY ALSO DO NOT REPORT WEATHER SUCH
AS PRECIPITATION OR FOG.

IAZ001>003-012>014-020>022-031>034-043>046-092100-
   NORTHWEST IOWA

CITY           SKY/WX    TMP DP  RH WIND       PRES   REMARKS
CARROLL *      SUNNY     16   7  67 NW18G24   30.16F WCI  -1
CHEROKEE *     CLOUDY    16   5  62 NW17G23   30.19F WCI   0
DENISON *      SUNNY     16   7  67 NW17      30.18F WCI   0
LE MARS *      CLOUDY    21  10  63 NW15G21   30.23F WCI   8
ORANGE CITY *  CLOUDY    18  10  73 NW15      30.18F WCI   3
SHELDON *      CLOUDY    16   9  73 NW15      30.17F WCI   1
SIOUX CITY     CLOUDY    22   8  55 NW17      30.24F WCI   8
SPENCER        CLOUDY    16   5  62 NW18      30.16F WCI   0
STORM LAKE *   PTSUNNY   16   5  62 NW22      30.16F WCI  -2
$$

IAZ055>058-069>071-079>083-090>094-092100-
   SOUTHWEST IOWA

CITY           SKY/WX    TMP DP  RH WIND       PRES   REMARKS
ATLANTIC *     SUNNY     16   5  62 N17G24    30.20F WCI   0
AUDUBON *      SUNNY     16   7  67 NW14G24   30.17F WCI   1
CLARINDA *     SUNNY     21   7  53 NW24G30   30.23F WCI   4
COUNCIL BLFS * SUNNY     18   5  57 NW16G23   30.21F WCI   3
CRESTON *      SUNNY     18   5  57 N25G37    30.15S WCI  -1
HARLAN  *      SUNNY     18   7  62 NW21      30.23F WCI   1
LAMONI         SUNNY     20   6  55 NW24G32   30.12F WCI   3
RED OAK *      SUNNY     21   7  53 NW20G31   30.23S WCI   6
SHENANDOAH *   SUNNY     21   9  58 N15G24    30.25S WCI   8
$$

IAZ047>049-059>061-072>074-084-092100-
   CENTRAL IOWA

CITY           SKY/WX    TMP DP  RH WIND       PRES   REMARKS
AMES           SUNNY     14   5  67 NW23G33   30.11F WCI  -5
ANKENY *       MOSUNNY   18   7  62 NW16G28   30.12F WCI   3
BOONE *        SUNNY     16   3  57 NW20G25   30.10F WCI  -1
CHARITON *     MOSUNNY   19   7  58 NW20G31   30.10F WCI   4
DES MOINES     MOSUNNY   17   6  62 NW18G26   30.12F WCI   1
GRINNELL*      MOSUNNY   14   7  73 NW25G31   30.07F WCI  -5
KNOXVILLE *    CLOUDY    18   5  57 NW25G33   30.08F WCI  -1
MARSHALLTOWN   SUNNY     13   4  67 NW22      30.08F WCI  -6
NEWTON *       FLURRIES  14   7  73 NW18G29   30.09F WCI  -3
PELLA *        SUNNY     17   8  66 NW25G32   30.11S WCI  -2
$$

IAZ004>006-015-016-023>025-035-036-092100-
   NORTH CENTRAL IOWA

CITY           SKY/WX    TMP DP  RH WIND       PRES   REMARKS
ALGONA *       SUNNY     14   7  73 NW21G31   30.11S WCI  -4
CLARION *      PTSUNNY   14   3  62 NW23G30   30.10F WCI  -5
ESTHERVILLE    SUNNY     15   7  70 NW23      30.13F WCI  -3
FORT DODGE *   SUNNY     16   3  57 NW13G20   30.14F WCI   2
MASON CITY     SUNNY     12   3  67 NW25      30.07F WCI  -8
FOREST CITY *    N/A     14   5  67 NW23G29   30.06F WCI  -5
WEBSTER CITY * MOSUNNY   14   5  67 NW23      30.10F WCI  -5
IOWA FALLS *     N/A     14   7  73 NW25G32   30.08F WCI  -5
$$

IAZ007>011-017>019-026>030-037>042-050>054-066-092100-
   NORTHEAST IOWA

CITY           SKY/WX    TMP DP  RH WIND       PRES   REMARKS
CEDAR RAPIDS   PTSUNNY   13   7  77 NW22      30.01F WCI  -6
CHARLES CITY * SUNNY     12   5  73 NW22G29   30.03F WCI  -7
CLINTON *      CLOUDY    18   9  68 NW22G30   29.94S WCI   1
DECORAH *      SUNNY     12  -2  52 N20       29.96F WCI  -6
DUBUQUE        CLOUDY    13   4  67 NW21G28   29.93S WCI  -5
MONTICELLO *   PTSUNNY   14   5  67 NW20G28   29.98S WCI  -3
OELWEIN *      SUNNY     10   3  72 NW24G31   30.00F HAZE    WCI -10
WATERLOO       SUNNY     13   3  64 NW25      30.04F WCI  -7
$$

IAZ064-065-067-068-078-092100-
   EAST CENTRAL IOWA

CITY           SKY/WX    TMP DP  RH WIND       PRES   REMARKS
DAVENPORT      PTSUNNY   17   7  64 NW21G29   29.96F WCI   0
IOWA CITY      CLOUDY    15   6  67 NW22G33   30.05S WCI  -3
MT. PLEASANT * CLOUDY    19  10  65 NW14G24   30.04R WCI   6
MUSCATINE *    PTSUNNY   18   7  62 NW22G30   30.03S WCI   0
QUAD CITIES    CLOUDY    17   7  64 W21G32    29.98S WCI   0
$$

IAZ062-063-075>077-085>089-095>099-092100-
   SOUTHEAST IOWA

CITY           SKY/WX    TMP DP  RH WIND       PRES   REMARKS
BURLINGTON     CLOUDY    16   8  71 NW20G30   30.01S WCI  -1
FAIRFIELD *    CLOUDY    16   7  67 NW20G28   30.05S WCI  -1
FORT MADISON * CLOUDY    16   9  73 NW17G29   30.03S WCI   0
KEOKUK *       CLOUDY    19   9  63 NW12G25   30.04S WCI   7
OSKALOOSA *      N/A     16   9  73 NW22G28   30.08F WCI  -2
OTTUMWA        MOSUNNY   17   7  64 NW25G32   30.08S WCI  -1
WASHINGTON *   CLOUDY    14   7  73 NW20G31   30.06R WCI  -3
$$

ABBREVIATIONS USED IN REMARKS
   TC - TEMPERATURES IN CELSIUS
  WCI - WIND CHILL INDEX
   HX - HEAT INDEX
  VSB - VISIBILITY
$$




USA.gov is the U.S. government's official web portal to all federal, state and local government web resources and services.